Regional Weather Roundup
Issued by NWS Sterling, VA

Current Version | Previous Version | Text Only | Print | Product List | Glossary On
Versions: 1 2 3 4 5 6 7 8 9 10 11 12 13 14 15 16 17 18 19 20 21 22 23 24 25 26 27 28 29 30 31 32 33 34 35 36 37 38 39 40 41 42 43 44 45 46 47 48 49 50
000
ASUS41 KLWX 211912
RWRLWX

REGIONAL WEATHER ROUNDUP
NATIONAL WEATHER SERVICE BALTIMORE MD/WASHINGTON DC
300 PM EDT WED OCT 21 2020

Note: "FAIR" indicates few or no clouds below 12,000 feet
with no significant weather and/or obstructions to visibility.
 TC=TEMPERATURE CELSIUS

 * =Non NWS site. Station does not report precipitation (e.g. rain,
    snow, etc.), thunder, or fog.

DCZ001-MDZ009-015-VAZ040>042-051-053>054-212000-
WASHINGTON METRO

CITY           SKY/WX    TMP DP  RH WIND       PRES   REMARKS
WASHINGTON NAT PTSUNNY   75  67  76 S8        30.21F
DULLES         MOSUNNY   79  65  62 S9        30.19F
ANDREWS AFB    MOSUNNY   77  67  72 SW10      30.20F
FT BELVOIR     PTSUNNY   75  68  78 SE6       30.20F
QUANTICO       MOSUNNY   72  67  84 S5        30.21F
MANASSAS*      PTSUNNY   79  66  64 S5        30.19F
GAITHERSBURG*  PTSUNNY   75  66  73 SE7       30.21F

$$

MDZ006>007-011-014-212000-
BALTIMORE METRO

CITY           SKY/WX    TMP DP  RH WIND       PRES   REMARKS
BWI AIRPORT    PTSUNNY   76  66  71 SE5       30.19F
MARTIN STATE   CLOUDY    68  68 100 SE5       30.22F FOG
ANNAPOLIS      MOSUNNY   69  69 100 E10       30.20F
ABERDEEN*      CLOUDY    68  67  94 SW8       30.20F FOG

$$

MDZ012-015-019>023-212000-
MARYLAND EASTERN SHORE

CITY           SKY/WX    TMP DP  RH WIND       PRES   REMARKS
OCEAN CITY     MOSUNNY   74  67  78 VRB6      30.24F
SALISBURY      MOSUNNY   79  66  64 SW7       30.22F
EASTON*        MOSUNNY   81  70  69 S10       30.24F

$$

MDZ017>025-212000-
SOUTHERN MARYLAND

CITY           SKY/WX    TMP DP  RH WIND       PRES   REMARKS
PATUXENT RIVER MOSUNNY   71  66  84 SE8       30.21F
ST INIGOES     MOSUNNY   81  70  69 VRB5      30.20F
LEONARDTOWN*   NOT AVBL

$$

MDZ003>005-212000-
NORTH CENTRAL MARYLAND

CITY           SKY/WX    TMP DP  RH WIND       PRES   REMARKS
FREDERICK*     MOSUNNY   79  66  65 SW8       30.19F
HAGERSTOWN APT SUNNY     77  60  55 S10       30.18F
WESTMINSTER*   NOT AVBL

$$

MDZ501>502-212000-
WESTERN MARYLAND

CITY           SKY/WX    TMP DP  RH WIND       PRES   REMARKS
OAKLAND*       NOT AVBL
CUMBERLAND*    NOT AVBL

$$

VAZ025>031-212000-
SHENANDOAH VALLEY

CITY           SKY/WX    TMP DP  RH WIND       PRES   REMARKS
WINCHESTER*    NOT AVBL
FRONT ROYAL*   NOT AVBL
LURAY*         NOT AVBL
NEW MARKET*    NOT AVBL
STAUNTON*      NOT AVBL
WAYNESBORO*    NOT AVBL

$$

WVZ021-048>050-054>055-212000-
EASTERN WEST VIRGINIA PANHANDLE

CITY           SKY/WX    TMP DP  RH WIND       PRES   REMARKS
MARTINSBURG    SUNNY     80  56  43 S3        30.16F
PETERSBURG*    SUNNY     84  55  36 CALM      30.17F

$$

VAZ036>039-050-212000-
CENTRAL FOOTHILLS

CITY           SKY/WX    TMP DP  RH WIND       PRES   REMARKS
CHARLOTTESVILL SUNNY     83  61  47 S9        30.20F
CULPEPER*      NOT AVBL
ORANGE*        NOT AVBL
GORDONSVILLE*  NOT AVBL
WARRENTON*     NOT AVBL

$$

VAZ055>057-212000-
NORTH AND CENTRAL PIEDMONT

CITY           SKY/WX    TMP DP  RH WIND       PRES   REMARKS
FREDERICKSBRG* NOT AVBL
STAFFORD*      NOT AVBL

$$

NCZ024-NYZ072-PAZ021-071-VAZ022-071-212000-
OTHER REGIONAL OBSERVATIONS

CITY           SKY/WX    TMP DP  RH WIND       PRES   REMARKS
NEW YORK CITY  MOSUNNY   68  63  84 VRB3      30.24F
PHILADELPHIA   MOSUNNY   74  66  76 W9        30.21F
PITTSBURGH     CLOUDY    72  60  66 W9G20     30.18S
ROANOKE        MOSUNNY   83  55  38 VRB6      30.23F
RICHMOND       PTSUNNY   79  68  69 VRB7      30.22F
RALEIGH        PTSUNNY   83  65  54 VRB7      30.22F

$$

ANZ530>537-212000-
MARINE OBSERVATIONS

STATION/POSITION TIME  TEMP    WIND        PRES
                       AIR SEA DIR/SP/G
                 (UTC) (F)     (DEG/KT/KT) (MB)
THOMAS PT LIGHT  1900   69 66  110/  1/  2 1023.8F
TOLCHESTER       1824   68 65  230/  5/  8 1023.4
GOOSES REEF      1848   68 67  180/ 12/ 12   N/A
COVE POINT       1824   66     150/  8/ 10 1023.8
BALT HARBOR      1824   72 67  150/  2/  3 1022.6
BALT KEY BRIDGE  1824   67      90/  6/  7 1023.1
WASH DC CHANNEL  1824   71 66  170/  5/  6 1023.2
DAHLGREN         1824   70 68  100/  6/  7 1022.4
LEWISETTA        1824   68 65  100/  6/  7 1023.6
SOLOMONS ISLAND  1824   71 67  110/  7/  9 1023.1
PINEY POINT      1824          160/  7/  9   N/A
CAMBRIDGE PIER   1824   77 67  170/  9/ 12 1023.2
BISHOPS HEAD     1824   67 69  150/  7/  8 1023.7
CHESAPEAKE CITY  1824   74 64  240/  3/  8 1023.0

$$




USA.gov is the U.S. government's official web portal to all federal, state and local government web resources and services.